STARLINK-5647, 55355

Orbit data source: Space-Track

STARLINK-5647, 55355 is a payload satellite owned by SpaceX/Seattle (US) in LEO that was launched on Thu, 26 Jan 2023 UTC via an FALCON 9 launch vehicle from the Air Force Eastern Test Range (AFETR). Payload-class satellites include a variety of spacecraft equipped with specific instruments for various scientific and technological missions. These include communications satellites like Starlink; space stations such as the ISS; scientific satellites like the Hubble; Earth observation satellites from companies like Planet Labs, Umbra, and HawkEye 360; GPS; miniature CubeSats for education and research; and military/defense satellites.

Loading next visibility...
Identifier
55355, 2023-013AA
Orbit
LEO
Country
Flag of USUS
Related business
Manufacturer
SpaceX/Seattle
Mission
Operational Commercial Communications
Bus & Motor
STARLINK, Unknown motor
Mass
305 kg wet, ~290 kg dry
Launch date (UTC)
2023-01-26 (3 years ago)
Launch vehicle
FALCON 9
Launch site
Air Force Eastern Test Range (AFETR)
Object type
Payload
Rocket body
Debris
Shape & HBR
Box + 1 Pan, 10.1 m
Radar Cross Section
13.562 m², Large (>1 m²)

Expand to show TLE details & history
Last TLE update: 2 days ago

TLE from 2 days ago
0 STARLINK-5647
1 55355U 23013AA  26171.14768467  .00000237  00000-0  18152-4 0  9995
2 55355  43.0164  84.7014 0002255 267.0927  92.9666 15.27579221187335
Epoch: 2026-06-20T03:32Z
TLE epoch observation values (Epoch: 2026-06-20T03:32:39.955Z)
Latitude
-0.00008°
Longitude
123.16836°
Altitude
482.909 km
Speed
7.626 km/s
True Right ascension
05h 38m 48s
True Declination
0° 00' 00"
Sunlit
Object was in daylight at epoch
Visualization orbit readout
Latitude
Unknown
Longitude
Unknown
Altitude
Unknown
Speed
Unknown
Apparent Right ascension
Unknown
Apparent Declination
Unknown
Sunlit
N/A
Visualization observer readout
Local Sidereal Time
21:37:29
Azimuth
Unknown
Elevation
Unknown
Doppler factor
Unknown
Orbital elements
Apogee altitude
486.541 km
Perigee altitude
483.446 km
Semi-major axis
6,863.131 km
Eccentricity
0.00023
Inclination
43.0164°
RAAN
84.7014°
Arg. of periapsis
267.0927°
True anomaly
92.99241°
Mean anomaly
92.9666°
Eccentric anomaly
92.9795°
Mean motion
3.81733 °/min
Orbital period
94.31 mins
BSTAR
0.000018152
Loading maneuver chart data...
Computing Atmospheric mass density...
Loading historical data...
Loading historical data...
Loading historical data...
Loading historical data...
Loading historical data...
Loading historical data...
Loading historical data...

Documentation

Showing up to 5 results
|